| time (UTC) | temp F | wind direction | speed knots | gust knots | rain 1hr in | rain 24hr in | rain mn in | humidity % | barometer mb |
| 20260507200804 | 58 | 81 | 0.0 | 0.9 | 0.00 | 0.36 | 0.10 | 68 | 1018.3 |
| 20260507200304 | 59 | 82 | 0.0 | 2.6 | 0.00 | 0.36 | 0.10 | 68 | 1018.3 |
| 20260507190804 | 60 | 325 | 0.9 | 0.9 | 0.00 | 0.36 | 0.10 | 63 | 1018.2 |
| 20260507180803 | 64 | 354 | 0.9 | 0.9 | 0.00 | 0.55 | 0.10 | 56 | 1018.2 |
| 20260507180304 | 64 | 312 | 0.9 | 7.0 | 0.00 | 0.55 | 0.10 | 54 | 1018.2 |
| 20260507170805 | 68 | 237 | 1.7 | 5.2 | 0.00 | 0.90 | 0.10 | 43 | 1018.2 |
| 20260507170305 | 68 | 240 | 2.6 | 8.7 | 0.00 | 0.94 | 0.10 | 44 | 1018.2 |
| 20260507160802 | 68 | 246 | 2.6 | 6.1 | 0.00 | 1.35 | 0.10 | 44 | 1018.1 |
| 20260507150802 | 71 | 252 | 5.2 | 12.2 | 0.00 | 1.40 | 0.10 | 43 | 1018.1 |
| 20260507150303 | 71 | 256 | 7.8 | 13.0 | 0.00 | 1.40 | 0.10 | 40 | 1018.1 |
| 20260507140302 | 72 | 267 | 9.6 | 12.2 | 0.00 | 1.40 | 0.10 | 38 | 1018.1 |
| 20260507130802 | 72 | 217 | 5.2 | 7.0 | 0.00 | 1.40 | 0.10 | 40 | 1018.0 |
| 20260507120803 | 71 | 270 | 7.0 | 8.7 | 0.00 | 1.40 | 0.10 | 43 | 1018.0 |
| 20260507120302 | 71 | 247 | 5.2 | 10.4 | 0.00 | 1.40 | 0.10 | 42 | 1018.0 |
| 20260507110803 | 68 | 185 | 1.7 | 2.6 | 0.00 | 1.40 | 0.10 | 48 | 1017.9 |
| 20260507110303 | 68 | 245 | 2.6 | 6.1 | 0.00 | 1.40 | 0.10 | 49 | 1017.9 |
| 20260507100802 | 64 | 234 | 1.7 | 2.6 | 0.00 | 1.43 | 0.10 | 56 | 1017.9 |
| 20260507100303 | 64 | 245 | 2.6 | 6.1 | 0.00 | 1.44 | 0.10 | 59 | 1017.9 |
| 20260507090803 | 62 | 166 | 0.9 | 2.6 | 0.00 | 1.46 | 0.10 | 65 | 1017.8 |
| 20260507090303 | 61 | 226 | 0.9 | 4.3 | 0.00 | 1.46 | 0.10 | 65 | 1017.8 |
| 20260507080803 | 58 | 206 | 0.9 | 1.7 | 0.00 | 1.46 | 0.10 | 70 | 1017.8 |
| 20260507080304 | 57 | 162 | 0.9 | 2.6 | 0.00 | 1.46 | 0.10 | 72 | 1017.8 |
| 20260507070803 | 55 | 192 | 0.9 | 2.6 | 0.00 | 1.46 | 0.10 | 80 | 1017.9 |
| 20260507070303 | 54 | 233 | 0.9 | 6.1 | 0.00 | 1.46 | 0.10 | 79 | 1017.8 |
| 20260507060804 | 53 | 99 | 4.3 | 7.0 | 0.00 | 1.48 | 0.10 | 84 | 1017.8 |
| 20260507060303 | 52 | 84 | 4.3 | 7.8 | 0.00 | 1.48 | 0.10 | 84 | 1017.8 |
| 20260507050803 | 49 | 64 | 1.7 | 2.6 | 0.00 | 1.51 | 0.10 | 93 | 1017.8 |
| 20260507050303 | 49 | 62 | 2.6 | 4.3 | 0.01 | 1.51 | 0.10 | 94 | 1017.8 |
| 20260507040803 | 49 | 69 | 0.9 | 4.3 | 0.05 | 1.52 | 0.10 | 94 | 1017.8 |
| 20260507030304 | 49 | 134 | 0.0 | 2.6 | 0.03 | 1.46 | 0.05 | 95 | 1017.8 |
| 20260507020803 | 49 | 260 | 0.0 | 1.7 | 0.00 | 1.43 | 0.02 | 94 | 1017.8 |
| 20260507020303 | 50 | 260 | 0.9 | 2.6 | 0.00 | 1.44 | 0.02 | 94 | 1017.8 |
| 20260507010803 | 50 | 219 | 0.9 | 0.9 | 0.00 | 1.45 | 0.02 | 94 | 1017.8 |
| 20260507010303 | 50 | 257 | 0.0 | 6.1 | 0.00 | 1.45 | 0.02 | 94 | 1017.8 |
| 20260507000803 | 50 | 257 | 0.9 | 1.7 | 0.00 | 1.46 | 0.02 | 93 | 1017.8 |
| 20260507000303 | 50 | 269 | 0.0 | 2.6 | 0.00 | 1.46 | 0.02 | 93 | 1017.8 |
| 20260506230804 | 49 | 54 | 0.0 | 1.7 | 0.02 | 1.46 | 0.02 | 93 | 1017.9 |
| 20260506220804 | 49 | 66 | 1.7 | 2.6 | 0.02 | 1.45 | 0.00 | 93 | 1017.9 |
| 20260506210804 | 47 | 163 | 0.0 | 0.0 | 0.24 | 1.45 | 1.44 | 92 | 1017.9 |
| 20260506210304 | 50 | 252 | 0.0 | 7.0 | 0.07 | 1.27 | 1.26 | 92 | 1017.9 |